Find Starlink 5078

NORAD ID: 54857 Int'l Des: 2022-177 Owner: SPXS Country: US Constellation: starlink operational
LEOCIRCULAR

リアルタイム位置

3D地球を読み込み中...

Starlink 5078について

説明を読み込み中...

次回通過

Passes for default location (London). Set your location on the main map for personalized predictions.

高度履歴

Loading altitude history...

軌道要素

1 54857U 22177AP 26106.88909850 -.00002331 00000-0 -75262-4 0 9997
2 54857 43.0018 265.7752 0001401 267.4363 92.6329 15.27556401182938
Epoch: Apr 16, 2026 • Age: 8 hours

現在のステータス

高度 484.5 km
速度 7.63 km/s
衛星直下点 30.63°N, 112.87°E
打ち上げ日 Dec 28, 2022
運用期間 3.2 years
タイプ internet

技術仕様

分類 Payload
質量 305.00 kg
乾燥質量 290.00 kg
総質量 305.00 kg
長さ 0.20 m
直径 2.80 m
スパン 9.00 m
形状 Box + pan
製造者 SPXS
バスタイプ Starlink
フェーズステータス In Orbit
所有者/国 SPXS/US

Most Searched